Regional Weather Roundup
Issued by NWS

Home | Current Version | Previous Version | Text Only | Print | Product List | Glossary Off
Versions: 1 2 3 4 5 6 7 8 9 10 11 12 13 14 15 16 17 18 19 20 21 22 23 24 25 26 27 28 29 30 31 32 33 34 35 36 37 38 39 40 41 42 43 44 45 46 47 48 49 50

000
ASUS43 KMKX 220100
RWRWI

WISCONSIN REGIONAL WEATHER ROUNDUP
NATIONAL WEATHER SERVICE MILWAUKEE/SULLIVAN WI
800 PM CDT SUN SEP 21 2014

NOTE: "FAIR" INDICATES FEW OR NO CLOUDS BELOW 12,000 FEET WITH NO
SIGNIFICANT WEATHER AND/OR OBSTRUCTIONS TO VISIBILITY.

WIZ001-002-006>008-014>016-023>028-220200-
NORTHWEST WISCONSIN

CITY           SKY/WX    TMP DP  RH WIND       PRES   REMARKS
SUPERIOR ARPT  CLEAR     53  46  76 NW5       30.15S
ASHLAND        CLEAR     45  44  97 CALM      30.16R
HAYWARD        CLEAR     50  45  83 CALM      30.17R
SIREN          CLEAR     55  47  74 CALM      30.17S
RICE LAKE      CLEAR     56  44  62 NW5       30.18R
LADYSMITH      CLEAR     49  45  86 CALM      30.17S
EAU CLAIRE     NOT AVBL
MENOMONIE      CLEAR     57  45  62 W5        30.16R
NEW RICHMOND   CLEAR     56  46  69 NW5       30.19R
OSCEOLA        CLEAR     57  47  69 W3        30.21R
$$

WIZ003>005-009-010-017-018-220200-
NORTH CENTRAL WISCONSIN

CITY           SKY/WX    TMP DP  RH WIND       PRES   REMARKS
WOODRUFF       CLEAR     44  40  84 CALM      30.15R
RHINELANDER    CLEAR     42  37  82 CALM      30.15S
EAGLE RIVER    CLEAR     42  36  78 CALM      30.13S
LAND O LAKES   CLEAR     44  39  83 CALM      30.14R
PHILLIPS       CLEAR     45  41  88 CALM      30.15R
TOMAHAWK       CLEAR     41  38  88 CALM      30.16R
MEDFORD        CLEAR     46  40  78 CALM      30.15R
MERRILL        CLEAR     46  38  73 N3        30.15R
$$

WIZ029-030-035-036-043>047-220200-
CENTRAL WISCONSIN

CITY           SKY/WX    TMP DP  RH WIND       PRES   REMARKS
WAUSAU         CLEAR     50  38  63 NW7       30.14R
MOSINEE        CLEAR     50  43  76 N9        30.16R
MARSHFIELD     CLEAR     52  42  69 N8        30.15R
STEVENS POINT  CLEAR     50  40  69 CALM      30.14R
WAUPACA        CLEAR     54  42  63 NW7       30.13R
WAUTOMA        NOT AVBL
WISC RAPIDS    CLEAR     50  44  80 NW5       30.16R
CAMP DOUGLAS   NOT AVBL
$$

WIZ011>013-019>022-031-037>040-048>050-220200-
NORTHEAST WISCONSIN

CITY           SKY/WX    TMP DP  RH WIND       PRES   REMARKS
ANTIGO         CLEAR     46  39  76 NW7       30.14R
STURGEON BAY   CLEAR     48  37  66 N14       30.12R
GREEN BAY      CLEAR     49  42  77 N7        30.12R
MANITOWOC      NOT AVBL
APPLETON       PTCLDY    50  39  66 N10       30.12R
CLINTONVILLE   CLEAR     50  41  71 N3        30.12R
OSHKOSH        PTCLDY    51  43  74 N8        30.12R
$$

WIZ032>034-041-042-053>061-220200-
SOUTHWEST WISCONSIN

CITY           SKY/WX    TMP DP  RH WIND       PRES   REMARKS
LA CROSSE      CLEAR     56  46  69 N6        30.15R
SPARTA         CLEAR     53  45  74 CALM      30.15R
VIROQUA        FAIR      54  46  73 N5        30.14S
BOSCOBEL       CLEAR     55  48  77 CALM      30.14R
PRAIRIE DU CHI CLEAR     58  46  64 W3        30.14R
PLATTEVILLE    FAIR      55  47  72 NW7       30.14R
$$

WIZ056-057-062-063-064-067-068-220200-
SOUTH CENTRAL WISCONSIN

CITY           SKY/WX    TMP DP  RH WIND       PRES   REMARKS
BARABOO/DELLS  CLEAR     56  43  61 NW3       30.12R
LONE ROCK      NOT AVBL
WATERTOWN      PTCLDY    53  45  74 CALM      30.10R
MADISON        PTCLDY    55  45  68 NW5       30.11R
MIDDLETON      FAIR      55  44  65 NW3       30.12R
MONROE         CLEAR     55  45  67 NW7       30.11R
JANESVILLE     CLEAR     57  43  58 N6        30.10R
$$

WIZ051-052-058>065-066-070>072-220200-
SOUTHEAST WISCONSIN

CITY           SKY/WX    TMP DP  RH WIND       PRES   REMARKS
MILWAUKEE      PTCLDY    53  41  63 N7        30.10R
WAUKESHA       NOT AVBL
MILWAUKEE/TIMM CLEAR     52  43  71 N3        30.11R
RACINE         CLEAR     52  43  71 NW5       30.11R
BURLINGTON     CLEAR     49  44  80 N3        30.10R
KENOSHA        CLEAR     51  44  77 N5        30.11R
FOND DU LAC    PTCLDY    51  43  74 N5        30.11R
SHEBOYGAN      CLEAR     48  42  80 N5        30.10R
WEST BEND      PTCLDY    50  43  76 N3        30.10R
JUNEAU         PTCLDY    51  45  78 N5        30.11R
$$

LSZ147-162-220200-
LAKE SUPERIOR

STATION/POSITION TIME  TEMP    WIND        PRES    WAVE
                       AIR SEA DIR/SP/G            HT/PER
                 (UTC) (F)     (DEG/KT/KT) (MB)    (FT/S)
W MID LAKE BUOY  2350   50 47  230/ 12/ 14 1020.1R   2/ 6
DEVILS ISLAND    0000   53     250/  8/ 10 1020.7R
PORT WING        0000   59      CALM  /  2 1020.7
SAXON HARBOR     0000   50      CALM  /  3 1021.0
$$

LMZ867-665-643>646-220200-
LAKE MICHIGAN

STATION/POSITION TIME  TEMP    WIND        PRES    WAVE
                       AIR SEA DIR/SP/G            HT/PER
                 (UTC) (F)     (DEG/KT/KT) (MB)    (FT/S)
N MID LAKE BUOY  2350   48 57  340/ 23/ 31 1017.8R   6/ 6
NORTHPORT PIER   0025   49     330/ 27     1019.3R
KEWAUNEE LAKESHO 0000   51     340/  3/  7 1017.8R
SHEBOYGAN LAKESH 0000   55 51  340/ 11/ 13 1018.9R
PORT WASHINGTON  0000   56     340/  3/  6 1019.0R
ATWATER BUOY     0000   56     340/ 10/ 12 1019.3R
MILWAUKEE LAKESH 0000   56     350/  6/  7   N/A
S MID LAKE BUOY  2350   56 62  350/ 21/ 25 1017.1R   9/ 8
KENOSHA   LAKESH 0000   56     360/ 13/ 16 1017.9R
$$

TC  - TEMPERATURE IN CELSIUS
VSB - VISIBILITY IN STATUTE MILES
WCI - WIND CHILL INDEX
HX  - HEAT INDEX




USA.gov is the U.S. government's official web portal to all federal, state and local government web resources and services.